Simultaneous Nadir Overpasses (SNOs) Predictions

Prediction of SNOs between METOP-A and TERRA Satellite Orbit:

Table of predicted SNOs for the next 14.0 days since TLE Epoch: 3/22/2013
Index Date (METOP-A) Time (METOP-A) Lat,Lon (METOP-A) SZA (METOP-A ) Date (TERRA) Time (TERRA) Lat,Lon (TERRA) SZA (TERRA ) Distance(km) Time Diff (sec)
1 03/23/2013 07:17:06 81.28, 117.40 82.70 03/23/2013 07:18:10 81.29, 117.49 82.74 1.51 64
2 03/23/2013 08:07:45 -81.29, -74.80 97.26 03/23/2013 08:07:36 -81.28, -74.98 97.29 3.16 9
3 03/26/2013 02:51:32 81.28,-176.31 81.61 03/26/2013 02:52:25 81.28,-176.15 81.66 2.79 53
4 03/26/2013 03:42:12 -81.29, -8.50 98.35 03/26/2013 03:41:52 -81.28, -8.59 98.37 1.90 20
5 03/28/2013 22:25:58 81.29,-109.69 80.57 03/28/2013 22:26:40 81.30,-109.51 80.62 3.21 42
6 03/28/2013 23:16:38 -81.29, 58.14 99.39 03/28/2013 23:16:07 -81.29, 58.07 99.41 1.14 31
7 03/31/2013 18:00:25 81.28, -43.50 79.48 03/31/2013 18:00:56 81.28, -43.35 79.51 2.67 31
8 03/31/2013 18:51:04 -81.29, 124.73 100.43 03/31/2013 18:50:22 -81.30, 124.63 100.45 1.61 42
9 04/03/2013 13:34:50 81.28, 23.02 78.45 04/03/2013 13:35:10 81.28, 23.09 78.46 1.30 20




NCC Satellite Simultaneous Nadir Overpasses (SNOs) Prediction Service
